Location: Czekanka
(50.4925°N, 19.2643°E)
Time: 03:01:18
(UTC+00:00)

USA 267 - Pass Details

Date: 15 June 2024
Orbit: 1100 x 1107 km, 123.0° (Epoch: 21 May)

Event Time Altitude Azimuth Distance (km) Brightness Sun altitude
Rises 00:59:55 0° 58° (ENE) 3,923 7.4 -10.3°
Reaches altitude 10° 01:02:40 10° 67° (ENE) 2,962 6.4 -10.0°
Maximum altitude 01:08:35 36° 132° (SE) 1,684 4.2 -9.5°
Drops below altitude 10° 01:14:27 10° 197° (SSW) 2,949 4.9 -9.0°
Enters shadow 01:14:40 - 198° (SSW) 3,018 5.0 -9.0°
